Regional Weather Roundup
Issued by NWS

Home | Current Version | Previous Version | Text Only | Print | Product List | Glossary Off
Versions: 1 2 3 4 5 6 7 8 9 10 11 12 13 14 15 16 17 18 19 20 21 22 23 24 25 26 27 28 29 30 31 32 33 34 35 36 37 38 39 40 41 42 43 44 45 46 47 48 49 50

482
ASUS45 KTFX 300010
RWRMT
MONTANA REGIONAL WEATHER ROUNDUP
NATIONAL WEATHER SERVICE GREAT FALLS MT
600 PM MDT THU SEP 29 2016

NOTE: "FAIR" INDICATES FEW OR NO CLOUDS BELOW 12000 FEET WITH NO
SIGNIFICANT WEATHER AND/OR OBSTRUCTIONS TO VISIBILITY.

MTZ001>007-043-300100-
WEST OF THE DIVIDE

CITY           SKY/WX    TMP DP  RH WIND       PRES   REMARKS
KALISPELL      MOSUNNY   75  46  35 CALM      29.96F
MISSOULA       MOSUNNY   79  47  32 W5        29.96S
BUTTE          MOSUNNY   74  39  28 S9G25     30.11S
MULLAN PASS    SUNNY     66  40  38 SW6       30.13R
ANACONDA         N/A     72  36  26 NW3       30.07R
DEER LODGE       N/A     75  37  25 SW3       30.08R
EUREKA           N/A     72  45  37 S3        29.98S
HAMILTON         N/A     75  39  27 S5        30.00R
LIBBY            N/A     75  48  38 NW3       29.94S
PLAINS           N/A     78  47  33 E6        29.95S
RONAN            N/A     71  46  40 W2        30.03S
$$

MTZ008-052>055-300100-
SOUTHWEST MONTANA

CITY           SKY/WX    TMP DP  RH WIND       PRES   REMARKS
BOZEMAN        CLOUDY    69  48  47 SE12      30.08S
DILLON         CLOUDY    69  37  30 W13G28    30.10R
W YELLOWSTONE  CLOUDY    61  43  51 S13G18    30.28S
ENNIS          SUNNY     73  43  33 S16G23    30.17F
THREE FORKS      N/A     79 -39   1 S6        30.05S
TWIN BRIDGES     N/A     72  42  33 SE3       30.06F
$$

MTZ009-010-012-014-046-048-049-054-300100-
EAST SLOPES AND CENTRAL MONTANA

CITY           SKY/WX    TMP DP  RH WIND       PRES   REMARKS
CUT BANK       MOSUNNY   69  48  47 N12       30.06S
GREAT FALLS    SUNNY     74  50  42 NE10      30.01S
MALMSTROM AFB  SUNNY     72  53  51 NE12      30.00F
HELENA         CLOUDY    74  50  42 W7        30.01S
AUGUSTA        MOCLDY    67  50  53 N13       30.07R
BOWMANS CRNR     N/A     73  50  44 E8        30.02S
CHOTEAU          N/A     68  50  52 NW12      30.08R
CONRAD           N/A     72  52  49 NW2       30.07S
FAIRFIELD        N/A     72  48  41 NE12      30.02R
POWER            N/A     72  47  40 E10       30.02S
RAYNESFORD       N/A     74  50  43 E7        30.04R
$$

MTZ011-013-016-021-045-047-050-051-300100-
NORTH CENTRAL MONTANA

CITY           SKY/WX    TMP DP  RH WIND       PRES   REMARKS
HAVRE          CLEAR     74  54  49 NE6       29.99F
LEWISTOWN      MOCLDY    72  55  55 E7        30.06R
N BAR RANCH    CLOUDY    73  48  40 SE3       30.10S
CHINOOK          N/A     73  55  53 E5        29.99S
DENTON         MOCLDY    71  56  57 NE8       30.00R
GEYSER         MOCLDY    67  50  53 N13       30.07R
GRASS RANGE    MOCLDY    70  58  64 W7        30.02R
JUDITH GAP     MOCLDY    70  46  42 S14G23    30.09S
ROY            MOCLDY    72  58  60 MISG      30.02S
STANFORD       TSTM      69  55  60 NW6       30.08R
WINIFRED         N/A     71  56  59 MISG      30.03S
$$

MTZ017>020-022>027-061-062-300100-
NORTHEAST MONTANA

CITY           SKY/WX    TMP DP  RH WIND       PRES   REMARKS
GLASGOW        CLEAR     77  47  34 S14       30.00F
JORDAN           N/A     76  51  41 SE6       30.02S
SIDNEY         CLEAR     74  49  41 SE12      30.09S
WOLF POINT     CLEAR     81  47  30 SE9       30.04S
PLENTYWOOD       N/A     73  48  40 SE14G21   30.11R
POPLAR           N/A     77  48  36 SE13G20   30.06S
SCOBEY           N/A     76  46  34 E15       30.07R
$$

MTZ028>42-056>058-300100-
SOUTHCENTRAL AND SOUTHEAST MONTANA

CITY           SKY/WX    TMP DP  RH WIND       PRES   REMARKS
BAKER          CLEAR     72  47  40 SE15      30.11F
BILLINGS       PTCLDY    74  51  44 NE3       30.05S
LIVINGSTON     CLOUDY    71  43  36 W12G17    30.10S
MILES CITY     PTCLDY    79  50  36 SE5       30.02F
BIG TIMBER     MOCLDY    72  43  35 W16       30.12R
EKALAKA          N/A     73  42  32 SE15      30.09S
FORSYTH          N/A     77  55  47 CALM      30.01F
HARLOWTON        N/A     71  47  43 NE12      30.07S
LAUREL           N/A     77  51  39 CALM      30.04F
ROUNDUP          N/A     76  46  34 SE3       29.96S
$$

REGIONAL REPORTS...DAKOTAS

CITY           SKY/WX    TMP DP  RH WIND       PRES   REMARKS
WILLISTON      CLEAR     72  45  37 SE10      30.13R
MINOT          CLEAR     68  46  45 SE14      30.22F
DICKINSON      CLEAR     67  42  40 SE17      30.15F
BEACH            N/A     72  45  37 SE15G23   30.15S
CROSBY           N/A     66  45  45 SE9       30.17S
WATFORD CITY     N/A     70  45  40 SE15      30.15S
BISMARCK       CLEAR     65  46  50 SE14      30.25F
GRAND FORKS    CLEAR     62  46  55 SE8       30.36F
FARGO          CLEAR     63  44  50 SE7       30.37F
BUFFALO SD       N/A     75  45  34 SE17      30.08S
RAPID CITY     CLEAR     75  45  34 S13       30.17S
$$

REGIONAL REPORTS...WYOMING/IDAHO/WASHINGTON

CITY           SKY/WX    TMP DP  RH WIND       PRES   REMARKS
GILLETTE       CLOUDY    73  47  39 S13       30.16R
SHERIDAN       CLOUDY    72  53  51 CALM      30.07F
BUFFALO WY     CLOUDY    72  44  36 S12       30.16S
CODY           CLEAR     73  41  31 CALM      30.14S
YELLOWSTONE LA   N/A     51  43  74 VRB7      30.38R
IDAHO FALLS    MOSUNNY   73  46  38 S9        30.17R
SALMON         MOSUNNY   75  39  27 S25G35    30.02R
BOISE          MOSUNNY   89  33  13 VRB3      29.95S
SPOKANE        PTSUNNY   78  44  29 SW6       29.93S
$$

REGIONAL REPORTS...ALBERTA

CITY           SKY/WX    TMP DP  RH WIND       PRES   REMARKS
EDMONTON       CLOUDY    59  37  44 E7        30.12S
CALGARY        PTSUNNY   57  43  58 SE9       30.08R
LETHBRIDGE     PTSUNNY   59  48  67 NE5       30.06S
MEDICINE HAT   PTCLDY    68  50  52 N13       30.02F
WATERTON GATE    N/A     59  46  63 NE7         N/A
MILK RIVER       N/A     63  48  59 N9          N/A
ONEFOUR          N/A     75  46  35 NE1         N/A
$$

REGIONAL REPORTS...SASKATCHEWAN

CITY           SKY/WX    TMP DP  RH WIND       PRES   REMARKS
SWIFT CURRENT  CLEAR     70  54  56 N8        30.03F
REGINA         PTCLDY    73  43  33 SE21      30.08S
SASKATOON      PTCLDY    57  50  77 NE12G17   30.11F
ROCKGLEN         N/A     72  45  37 SE14G21     N/A
$$




USA.gov is the U.S. government's official web portal to all federal, state and local government web resources and services.